Regional Weather Roundup
Issued by NWS

Home | Current Version | Previous Version | Text Only | Print | Product List | Glossary Off
Versions: 1 2 3 4 5 6 7 8 9 10 11 12 13 14 15 16 17 18 19 20 21 22 23 24 25 26 27 28 29 30 31 32 33 34 35 36 37 38 39 40 41 42 43 44 45 46 47 48 49 50

000
ASUS43 KLMK 212302
RWRKY
KENTUCKY REGIONAL WEATHER ROUNDUP
NATIONAL WEATHER SERVICE LOUISVILLE KY
700 PM EDT THU MAY 21 2015

NOTE "FAIR" INDICATES FEW OR NO CLOUDS BELOW 12,000 FEET
WITH NO SIGNIFICANT WEATHER AND/OR OBSTRUCTIONS TO VISIBILITY.

KYZ001>023-026-027-061>063-070>075-220000-
WESTERN AND SOUTH CENTRAL KENTUCKY

CITY           SKY/WX    TMP DP  RH WIND       PRES   REMARKS
PADUCAH        CLOUDY    59  43  55 N13       30.17F
HENDERSON      MOSUNNY   61  43  51 NW12G18   30.15F
OWENSBORO      PTSUNNY   59  45  59 N10       30.16F
HOPKINSVILLE   CLOUDY    56  45  65 NW10      30.16S
BOWLING GREEN  CLOUDY    57  44  62 NW7       30.15R
GLASGOW        NOT AVBL
$$

KYZ024-025-028>034-038-045-046-053-220000-
NORTH CENTRAL KENTUCKY

CITY           SKY/WX    TMP DP  RH WIND       PRES   REMARKS
LOUISVILLE/SDF PTSUNNY   59  42  53 NW16      30.12R
LOUISVILLE/LOU CLOUDY    59  41  51 NW12      30.12S
FORT KNOX      CLOUDY    57  44  61 NW13      30.11S
$$

KYZ035>037-039>044-047>052-055>060-089>105-220000-
NORTHEAST KENTUCKY

CITY           SKY/WX    TMP DP  RH WIND       PRES   REMARKS
LEXINGTON      CLOUDY    55  42  61 NW13      30.10S
COVINGTON      CLOUDY    58  42  55 NW10      30.08F
FRANKFORT      CLOUDY    57  41  55 N8        30.10R
$$

KYZ054-064>069-076>088-106>120-220000-
SOUTHEAST KENTUCKY

CITY           SKY/WX    TMP DP  RH WIND       PRES   REMARKS
JACKSON        CLOUDY    51  48  89 NW6       30.08R FOG
LONDON         LGT RAIN  53  45  74 NW9       30.09S
SOMERSET       NOT AVBL
MIDDLESBORO    NOT AVBL
MONTICELLO     CLOUDY    54  49  83 NW9       30.14R
$$




USA.gov is the U.S. government's official web portal to all federal, state and local government web resources and services.